Find Starlink 33813

NORAD ID: 63585 Int'l Des: 2025-076 Owner: SPXS Country: US Constellation: starlink operational
LEOCIRCULAR

Current View

Loading 3D Globe...

About Starlink 33813

Starlink 33813 (NORAD 63585) is a starlink constellation satellite (v2 mini) launched Apr 14, 2025 by SPXS of US. It operates in LEO, CIRCULAR orbit with a mass of 575.00 kg.

About Starlink 33813

Description loading...

Upcoming Passes

Passes for default location (London). Set your location on the main map for personalized predictions.

Altitude History

Loading altitude history...

Two-Line Element Set

1 63585U 25076S 26171.13897840 .00017885 00000-0 65792-3 0 9995
2 63585 43.0035 102.6845 0001616 275.5284 84.5383 15.27578383 67505
Epoch: Jun 20, 2026 • Age: 21 hours

Current Status

Altitude 487.1 km
Velocity 7.62 km/s
Sub-Earth Point -20.10°S, 21.64°E
Launch Date Apr 14, 2025
Age 1.1 years
Type internet

Technical Details

Classification Payload
Mass 575.00 kg
Dry Mass 530.00 kg
Total Mass 575.00 kg
Length 0.30 m
Diameter 4.10 m
Span 29.00 m
Shape Box + pan
Manufacturer SPXS
Bus Type Starlink V2MO
Phase Status In Orbit
Owner/State SPXS/US

Most Searched